CTV487 WILL-WADY

Flight info

Callsign CTV487
Flight time N/A
Altitude 35000
Route CKG T3 ANY G461 BA T3 MOVMO
Aircraft A320/M-SDE3FGHIRWY/LB1

Departure

Time 2026-04-16 06:58
Airport Radin Inten II International Airport (WILL)

Arrival

Time N/A
Airport Banyuwangi Airport (WADY)
Time Latitude Longitude Altitude Speed Heading
2026-04-16 06:30 -5.24260 105.17674 273 ft 0 kts 230°
2026-04-16 06:49 -5.24246 105.17690 301 ft 4 kts 229°
2026-04-16 06:49 -5.24228 105.17710 274 ft 4 kts 217°
2026-04-16 06:49 -5.24207 105.17720 274 ft 4 kts 149°
2026-04-16 06:49 -5.24190 105.17706 277 ft 2 kts 139°
2026-04-16 06:50 -5.24188 105.17704 276 ft 0 kts 139°
2026-04-16 06:53 -5.24208 105.17722 275 ft 7 kts 139°
2026-04-16 06:53 -5.24259 105.17766 272 ft 13 kts 139°
2026-04-16 06:54 -5.24339 105.17833 272 ft 16 kts 140°
2026-04-16 06:54 -5.24424 105.17907 272 ft 15 kts 140°
2026-04-16 06:54 -5.24482 105.17980 272 ft 13 kts 95°
2026-04-16 06:54 -5.24480 105.18089 271 ft 18 kts 109°
2026-04-16 06:55 -5.24584 105.18191 271 ft 23 kts 139°
2026-04-16 06:55 -5.24720 105.18306 272 ft 28 kts 139°
2026-04-16 06:55 -5.24878 105.18441 273 ft 32 kts 139°
2026-04-16 06:55 -5.25034 105.18572 273 ft 30 kts 139°
2026-04-16 06:56 -5.25181 105.18696 274 ft 24 kts 140°
2026-04-16 06:56 -5.25311 105.18807 271 ft 25 kts 140°
2026-04-16 06:56 -5.25437 105.18915 271 ft 24 kts 139°
2026-04-16 06:56 -5.25550 105.19011 271 ft 20 kts 136°
2026-04-16 06:57 -5.25613 105.19098 271 ft 12 kts 151°
2026-04-16 06:57 -5.25616 105.19066 271 ft 7 kts 321°
2026-04-16 06:57 -5.25609 105.19060 271 ft 0 kts 320°
2026-04-16 06:57 -5.25570 105.19027 271 ft 32 kts 320°
2026-04-16 06:58 -5.25204 105.18717 273 ft 101 kts 319°
2026-04-16 06:58 -5.24519 105.18136 271 ft 154 kts 320°
2026-04-16 06:58 -5.23610 105.17408 643 ft 166 kts 322°
2026-04-16 06:58 -5.22738 105.16655 1172 ft 167 kts 321°
2026-04-16 06:59 -5.21849 105.15876 1610 ft 177 kts 323°
2026-04-16 06:59 -5.20630 105.15474 1800 ft 198 kts 10°
2026-04-16 06:59 -5.19441 105.16146 2158 ft 206 kts 56°
2026-04-16 06:59 -5.18826 105.17486 2582 ft 219 kts 72°
2026-04-16 07:00 -5.18372 105.19041 2853 ft 247 kts 76°
2026-04-16 07:00 -5.17867 105.20798 3147 ft 275 kts 73°
2026-04-16 07:00 -5.17252 105.22596 4085 ft 270 kts 70°
2026-04-16 07:01 -5.15889 105.26179 5616 ft 280 kts 69°
2026-04-16 07:01 -5.15179 105.27985 5901 ft 282 kts 69°
2026-04-16 07:01 -5.14452 105.29816 5968 ft 282 kts 69°
2026-04-16 07:01 -5.13725 105.31641 5976 ft 282 kts 69°
2026-04-16 07:02 -5.12998 105.33471 5977 ft 282 kts 69°
2026-04-16 07:02 -5.12270 105.35297 5980 ft 282 kts 69°
2026-04-16 07:02 -5.11542 105.37125 5975 ft 282 kts 69°
2026-04-16 07:02 -5.10816 105.38947 5976 ft 282 kts 69°
2026-04-16 07:03 -5.10103 105.40778 5975 ft 281 kts 73°
2026-04-16 07:03 -5.09858 105.42705 5976 ft 279 kts 96°
2026-04-16 07:03 -5.10359 105.44575 6045 ft 281 kts 119°
2026-04-16 07:03 -5.11556 105.46112 6759 ft 281 kts 139°
2026-04-16 07:04 -5.13045 105.47394 7524 ft 283 kts 140°
2026-04-16 07:04 -5.14551 105.48682 8276 ft 286 kts 140°
2026-04-16 07:04 -5.16073 105.49983 9012 ft 289 kts 140°
2026-04-16 07:04 -5.17636 105.51270 9715 ft 293 kts 146°
2026-04-16 07:05 -5.19453 105.52206 10264 ft 300 kts 160°
2026-04-16 07:05 -5.21571 105.52625 10418 ft 323 kts 178°
2026-04-16 07:05 -5.23888 105.52514 10549 ft 344 kts 184°
2026-04-16 07:05 -5.26289 105.52356 10920 ft 355 kts 183°
2026-04-16 07:06 -5.28771 105.52205 11469 ft 359 kts 183°
2026-04-16 07:06 -5.31279 105.52060 12055 ft 362 kts 183°
2026-04-16 07:06 -5.33810 105.51919 12632 ft 366 kts 183°
2026-04-16 07:06 -5.36365 105.51779 13208 ft 369 kts 183°
2026-04-16 07:07 -5.38940 105.51640 13763 ft 373 kts 183°
2026-04-16 07:07 -5.41539 105.51496 14267 ft 376 kts 183°
2026-04-16 07:07 -5.44166 105.51350 14777 ft 379 kts 183°
2026-04-16 07:07 -5.46809 105.51202 15265 ft 382 kts 183°
2026-04-16 07:08 -5.49468 105.51049 15753 ft 385 kts 183°
2026-04-16 07:08 -5.52156 105.50897 16247 ft 388 kts 183°
2026-04-16 07:08 -5.54859 105.50745 16717 ft 391 kts 182°
2026-04-16 07:08 -5.57584 105.50592 17190 ft 394 kts 182°
2026-04-16 07:09 -5.60278 105.50439 17651 ft 396 kts 182°
2026-04-16 07:09 -5.63040 105.50280 18109 ft 399 kts 182°
2026-04-16 07:09 -5.65826 105.50317 18488 ft 401 kts 172°
2026-04-16 07:09 -5.68560 105.50902 18868 ft 403 kts 161°
2026-04-16 07:10 -5.71101 105.52004 19246 ft 404 kts 150°
2026-04-16 07:10 -5.73467 105.53592 19649 ft 406 kts 143°
2026-04-16 07:10 -5.75735 105.55236 20017 ft 408 kts 143°
2026-04-16 07:10 -5.78047 105.56903 20399 ft 410 kts 143°
2026-04-16 07:11 -5.80372 105.58573 20775 ft 412 kts 143°
2026-04-16 07:11 -5.82714 105.60254 21146 ft 415 kts 143°
2026-04-16 07:11 -5.85066 105.61945 21520 ft 417 kts 143°
2026-04-16 07:11 -5.87429 105.63645 21885 ft 419 kts 143°
2026-04-16 07:12 -5.89803 105.65356 22243 ft 421 kts 143°
2026-04-16 07:12 -5.92191 105.67077 22606 ft 423 kts 143°
2026-04-16 07:12 -5.94584 105.68801 22962 ft 425 kts 143°
2026-04-16 07:12 -5.96994 105.70537 23319 ft 427 kts 143°
2026-04-16 07:13 -5.99412 105.72279 23617 ft 429 kts 143°
2026-04-16 07:13 -6.01837 105.74029 23892 ft 431 kts 143°
2026-04-16 07:13 -6.04274 105.75789 24168 ft 433 kts 143°
2026-04-16 07:13 -6.06724 105.77557 24438 ft 434 kts 143°
2026-04-16 07:14 -6.09178 105.79329 24721 ft 436 kts 143°
2026-04-16 07:14 -6.11645 105.81110 24989 ft 437 kts 143°
2026-04-16 07:14 -6.14039 105.83001 25237 ft 439 kts 135°
2026-04-16 07:14 -6.16040 105.85317 25487 ft 440 kts 124°
2026-04-16 07:15 -6.17537 105.87996 25735 ft 441 kts 112°
2026-04-16 07:15 -6.18468 105.90929 25982 ft 442 kts 101°
2026-04-16 07:15 -6.18791 105.93995 26232 ft 444 kts 90°
2026-04-16 07:15 -6.18792 105.97111 26484 ft 446 kts 90°
2026-04-16 07:16 -6.18791 105.99183 26652 ft 447 kts 90°
2026-04-16 07:16 -6.18793 106.03380 26994 ft 450 kts 90°
2026-04-16 07:16 -6.18795 106.06521 27246 ft 451 kts 90°
2026-04-16 07:16 -6.18795 106.08611 27412 ft 452 kts 90°
2026-04-16 07:17 -6.18793 106.11785 27662 ft 454 kts 90°
2026-04-16 07:17 -6.18791 106.14957 27901 ft 456 kts 90°
2026-04-16 07:17 -6.18791 106.18150 28132 ft 457 kts 90°
2026-04-16 07:17 -6.18791 106.22388 28431 ft 459 kts 90°
2026-04-16 07:18 -6.18791 106.24557 28583 ft 460 kts 90°
2026-04-16 07:18 -6.18792 106.27776 28802 ft 462 kts 90°
2026-04-16 07:18 -6.18793 106.31010 29022 ft 463 kts 90°
2026-04-16 07:18 -6.18794 106.34253 29240 ft 465 kts 90°
2026-04-16 07:19 -6.18793 106.37506 29454 ft 466 kts 90°
2026-04-16 07:19 -6.18791 106.40471 29646 ft 467 kts 90°
2026-04-16 07:19 -6.18790 106.43744 29938 ft 467 kts 90°
2026-04-16 07:19 -6.18789 106.46959 30210 ft 466 kts 90°
2026-04-16 07:20 -6.18789 106.50208 30477 ft 465 kts 90°
2026-04-16 07:20 -6.18982 106.53449 30734 ft 464 kts 98°
2026-04-16 07:20 -6.19635 106.56623 30980 ft 463 kts 103°
2026-04-16 07:20 -6.20370 106.59707 31221 ft 463 kts 103°
2026-04-16 07:21 -6.21011 106.62400 31451 ft 462 kts 103°
2026-04-16 07:21 -6.21755 106.65550 31712 ft 462 kts 103°
2026-04-16 07:21 -6.22495 106.68690 31969 ft 462 kts 103°
2026-04-16 07:21 -6.23231 106.71827 32232 ft 461 kts 103°
2026-04-16 07:22 -6.23965 106.74963 32511 ft 461 kts 103°
2026-04-16 07:22 -6.24701 106.78097 32775 ft 460 kts 103°
2026-04-16 07:22 -6.25437 106.81225 33042 ft 460 kts 103°
2026-04-16 07:22 -6.26169 106.84342 33300 ft 459 kts 103°
2026-04-16 07:23 -6.26904 106.87475 33566 ft 459 kts 103°
2026-04-16 07:23 -6.27646 106.90597 33845 ft 458 kts 103°
2026-04-16 07:23 -6.28420 106.93701 34081 ft 458 kts 104°
2026-04-16 07:23 -6.29222 106.96800 34310 ft 457 kts 104°
2026-04-16 07:24 -6.30034 106.99893 34564 ft 456 kts 104°
2026-04-16 07:24 -6.30835 107.02935 34775 ft 456 kts 104°
2026-04-16 07:24 -6.31650 107.06056 34848 ft 455 kts 104°
2026-04-16 07:25 -6.33223 107.12184 34855 ft 455 kts 104°
2026-04-16 07:25 -6.34792 107.18340 34850 ft 454 kts 104°
2026-04-16 07:26 -6.36358 107.24492 34848 ft 454 kts 104°
2026-04-16 07:26 -6.37925 107.30642 34847 ft 454 kts 104°
2026-04-16 07:27 -6.39493 107.36744 34844 ft 453 kts 104°
2026-04-16 07:27 -6.41080 107.42895 34846 ft 453 kts 104°
2026-04-16 07:28 -6.42647 107.49041 34845 ft 453 kts 104°
2026-04-16 07:28 -6.44206 107.55186 34844 ft 453 kts 104°
2026-04-16 07:29 -6.45767 107.61327 34844 ft 453 kts 104°
2026-04-16 07:29 -6.47331 107.67473 34844 ft 453 kts 104°
2026-04-16 07:30 -6.48899 107.73609 34846 ft 453 kts 104°
2026-04-16 07:30 -6.50462 107.79746 34841 ft 453 kts 104°
2026-04-16 07:31 -6.52015 107.85856 34840 ft 453 kts 104°
2026-04-16 07:31 -6.53577 107.91991 34845 ft 453 kts 104°
2026-04-16 07:32 -6.55136 107.98140 34841 ft 453 kts 104°
2026-04-16 07:32 -6.56696 108.04289 34841 ft 453 kts 104°
2026-04-16 07:33 -6.58258 108.10428 34840 ft 453 kts 104°
2026-04-16 07:33 -6.59825 108.16581 34838 ft 453 kts 104°
2026-04-16 07:34 -6.61382 108.22721 34844 ft 453 kts 104°
2026-04-16 07:34 -6.62937 108.28859 34848 ft 453 kts 104°
2026-04-16 07:35 -6.64487 108.34969 34848 ft 453 kts 104°
2026-04-16 07:35 -6.66041 108.41102 34849 ft 453 kts 104°
2026-04-16 07:36 -6.67587 108.47239 34850 ft 452 kts 104°
2026-04-16 07:36 -6.69136 108.53383 34850 ft 452 kts 104°
2026-04-16 07:37 -6.70354 108.59592 34847 ft 453 kts 99°
2026-04-16 07:37 -6.71312 108.65856 34844 ft 453 kts 99°
2026-04-16 07:38 -6.72269 108.72081 34843 ft 453 kts 99°
2026-04-16 07:38 -6.73242 108.78354 34840 ft 453 kts 99°
2026-04-16 07:39 -6.74209 108.84630 34837 ft 454 kts 99°
2026-04-16 07:39 -6.75159 108.90907 34839 ft 454 kts 99°
2026-04-16 07:40 -6.76114 108.97175 34837 ft 454 kts 99°
2026-04-16 07:40 -6.77087 109.03470 34843 ft 454 kts 99°
2026-04-16 07:41 -6.78042 109.09713 34841 ft 454 kts 99°
2026-04-16 07:41 -6.79000 109.15996 34842 ft 454 kts 99°
2026-04-16 07:42 -6.79959 109.22271 34849 ft 454 kts 99°
2026-04-16 07:42 -6.80917 109.28548 34847 ft 454 kts 99°
2026-04-16 07:43 -6.81874 109.34830 34846 ft 453 kts 99°
2026-04-16 07:43 -6.82830 109.41108 34846 ft 453 kts 99°
2026-04-16 07:44 -6.83784 109.47378 34844 ft 453 kts 99°
2026-04-16 07:44 -6.84724 109.53599 34847 ft 452 kts 99°
2026-04-16 07:45 -6.85672 109.59851 34846 ft 452 kts 99°
2026-04-16 07:45 -6.86626 109.66109 34845 ft 452 kts 99°
2026-04-16 07:46 -6.87576 109.72365 34848 ft 451 kts 99°
2026-04-16 07:46 -6.88521 109.78603 34849 ft 451 kts 99°
2026-04-16 07:47 -6.89464 109.84849 34849 ft 451 kts 99°
2026-04-16 07:47 -6.90087 109.88984 34849 ft 450 kts 99°
2026-04-16 07:48 -6.90389 109.90991 34848 ft 451 kts 99°
2026-04-16 07:48 -6.91332 109.97258 34850 ft 450 kts 99°
2026-04-16 07:49 -6.92277 110.03495 34848 ft 450 kts 99°
2026-04-16 07:49 -6.93219 110.09711 34847 ft 450 kts 99°
2026-04-16 07:50 -6.94154 110.15950 34845 ft 450 kts 99°
2026-04-16 07:50 -6.95079 110.22169 34846 ft 450 kts 99°
2026-04-16 07:51 -6.96018 110.28392 34846 ft 449 kts 99°
2026-04-16 07:51 -6.96958 110.34610 34847 ft 449 kts 99°
2026-04-16 07:52 -6.97532 110.40863 34847 ft 449 kts 92°
2026-04-16 07:52 -6.97638 110.47158 34847 ft 449 kts 92°
2026-04-16 07:53 -6.97748 110.53407 34841 ft 449 kts 92°
2026-04-16 07:53 -6.97860 110.59692 34838 ft 449 kts 92°
2026-04-16 07:54 -6.97974 110.65983 34835 ft 449 kts 92°
2026-04-16 07:54 -6.98086 110.72258 34829 ft 449 kts 92°
2026-04-16 07:55 -6.98193 110.78539 34830 ft 449 kts 92°
2026-04-16 07:55 -6.98302 110.84832 34830 ft 448 kts 92°
2026-04-16 07:56 -6.98415 110.91106 34830 ft 448 kts 92°
2026-04-16 07:56 -6.98526 110.97381 34830 ft 448 kts 92°
2026-04-16 07:57 -6.98629 111.03649 34836 ft 448 kts 92°
2026-04-16 07:57 -6.98732 111.09877 34835 ft 447 kts 92°
2026-04-16 07:58 -6.98838 111.16134 34837 ft 447 kts 92°
2026-04-16 07:58 -6.98946 111.22389 34837 ft 447 kts 92°
2026-04-16 07:59 -6.99045 111.28655 34838 ft 447 kts 92°
2026-04-16 07:59 -6.99150 111.34909 34838 ft 446 kts 92°
2026-04-16 08:00 -6.99470 111.41138 34836 ft 445 kts 101°
2026-04-16 08:00 -7.01417 111.47022 34834 ft 444 kts 113°
2026-04-16 08:01 -7.03814 111.52710 34834 ft 444 kts 113°
2026-04-16 08:01 -7.06204 111.58446 34835 ft 444 kts 112°
2026-04-16 08:02 -7.08593 111.64180 34837 ft 444 kts 113°
2026-04-16 08:02 -7.12187 111.72776 34839 ft 444 kts 113°
2026-04-16 08:03 -7.14179 111.77534 34839 ft 444 kts 113°
2026-04-16 08:03 -7.16582 111.83265 34841 ft 444 kts 113°
2026-04-16 08:04 -7.18972 111.88998 34841 ft 444 kts 112°
2026-04-16 08:04 -7.21365 111.94729 34843 ft 444 kts 113°
2026-04-16 08:05 -7.23769 112.00471 34845 ft 444 kts 113°
2026-04-16 08:05 -7.26166 112.06213 34846 ft 444 kts 112°
2026-04-16 08:06 -7.28555 112.11953 34844 ft 444 kts 113°
2026-04-16 08:06 -7.30949 112.17698 34844 ft 444 kts 113°
2026-04-16 08:07 -7.33325 112.23405 34847 ft 444 kts 113°
2026-04-16 08:07 -7.35712 112.29144 34849 ft 444 kts 112°
2026-04-16 08:08 -7.38105 112.34878 34851 ft 444 kts 113°
2026-04-16 08:08 -7.40503 112.40621 34854 ft 444 kts 113°
2026-04-16 08:09 -7.42889 112.46350 34861 ft 444 kts 113°
2026-04-16 08:09 -7.45266 112.52084 34865 ft 443 kts 112°
2026-04-16 08:10 -7.47648 112.57825 34865 ft 443 kts 113°
2026-04-16 08:10 -7.50031 112.63554 34866 ft 443 kts 113°
2026-04-16 08:11 -7.52417 112.69292 34867 ft 443 kts 112°
2026-04-16 08:11 -7.54798 112.75029 34866 ft 443 kts 113°
2026-04-16 08:12 -7.57161 112.80715 34862 ft 443 kts 112°
2026-04-16 08:12 -7.59534 112.86438 34865 ft 443 kts 112°
2026-04-16 08:13 -7.60720 112.89295 34567 ft 441 kts 113°
2026-04-16 08:13 -7.61909 112.92165 33894 ft 442 kts 113°
2026-04-16 08:13 -7.63097 112.95029 33101 ft 444 kts 113°
2026-04-16 08:13 -7.64289 112.97901 32283 ft 446 kts 113°
2026-04-16 08:14 -7.65488 113.00788 31473 ft 448 kts 113°
2026-04-16 08:14 -7.66698 113.03705 30688 ft 450 kts 113°
2026-04-16 08:14 -7.67896 113.06599 30133 ft 446 kts 113°
2026-04-16 08:14 -7.69085 113.09473 29508 ft 442 kts 113°
2026-04-16 08:15 -7.70263 113.12317 28862 ft 438 kts 113°
2026-04-16 08:15 -7.71424 113.15128 28033 ft 432 kts 113°
2026-04-16 08:15 -7.72574 113.17916 27181 ft 427 kts 113°
2026-04-16 08:15 -7.73707 113.20666 26366 ft 422 kts 113°
2026-04-16 08:16 -7.74829 113.23380 25574 ft 418 kts 114°
2026-04-16 08:16 -7.75943 113.26074 24796 ft 414 kts 114°
2026-04-16 08:16 -7.77033 113.28709 24046 ft 411 kts 114°
2026-04-16 08:16 -7.78144 113.31392 23447 ft 408 kts 114°
2026-04-16 08:17 -7.79221 113.33994 22780 ft 405 kts 114°
2026-04-16 08:17 -7.80300 113.36602 22148 ft 402 kts 114°
2026-04-16 08:17 -7.81370 113.39193 21551 ft 399 kts 114°
2026-04-16 08:17 -7.82436 113.41770 20971 ft 395 kts 113°
2026-04-16 08:18 -7.83488 113.44314 20401 ft 392 kts 113°
2026-04-16 08:19 -7.90624 113.61615 16620 ft 371 kts 113°
2026-04-16 08:20 -7.91612 113.64015 16070 ft 369 kts 113°
2026-04-16 08:20 -7.92594 113.66398 15555 ft 367 kts 113°
2026-04-16 08:20 -7.93572 113.68767 15027 ft 365 kts 113°
2026-04-16 08:20 -7.94546 113.71123 14513 ft 363 kts 113°
2026-04-16 08:21 -7.95514 113.73468 14006 ft 361 kts 113°
2026-04-16 08:21 -7.96479 113.75805 13483 ft 360 kts 113°
2026-04-16 08:21 -7.97427 113.78095 12946 ft 357 kts 113°
2026-04-16 08:21 -7.98379 113.80402 12424 ft 354 kts 113°
2026-04-16 08:22 -7.99321 113.82692 11895 ft 352 kts 113°
2026-04-16 08:22 -8.00274 113.84965 11374 ft 349 kts 116°
2026-04-16 08:22 -8.01584 113.86997 10876 ft 344 kts 131°
2026-04-16 08:22 -8.03347 113.88607 10378 ft 341 kts 146°
2026-04-16 08:23 -8.05432 113.89705 9884 ft 338 kts 161°
2026-04-16 08:23 -8.07668 113.90224 9723 ft 323 kts 173°
2026-04-16 08:23 -8.09855 113.90485 9593 ft 309 kts 173°
2026-04-16 08:23 -8.11935 113.90747 9331 ft 295 kts 173°
2026-04-16 08:24 -8.13913 113.90998 8845 ft 289 kts 173°
2026-04-16 08:24 -8.15912 113.91253 8301 ft 287 kts 173°
2026-04-16 08:24 -8.17883 113.91504 7745 ft 284 kts 173°
2026-04-16 08:24 -8.19834 113.91748 7221 ft 281 kts 173°
2026-04-16 08:25 -8.21773 113.91992 7061 ft 281 kts 173°
2026-04-16 08:25 -8.23721 113.92237 7044 ft 282 kts 173°
2026-04-16 08:25 -8.25669 113.92506 7041 ft 283 kts 167°
2026-04-16 08:25 -8.27510 113.93177 7041 ft 282 kts 152°
2026-04-16 08:26 -8.29106 113.94321 7045 ft 283 kts 136°
2026-04-16 08:26 -8.30428 113.95793 7041 ft 283 kts 131°
2026-04-16 08:26 -8.31723 113.97289 7042 ft 283 kts 131°
2026-04-16 08:26 -8.33021 113.98778 7035 ft 282 kts 131°
2026-04-16 08:27 -8.34321 114.00262 7035 ft 283 kts 131°
2026-04-16 08:27 -8.35618 114.01743 6778 ft 280 kts 131°
2026-04-16 08:27 -8.36894 114.03199 6600 ft 271 kts 131°
2026-04-16 08:27 -8.38117 114.04597 6479 ft 260 kts 131°
2026-04-16 08:28 -8.39286 114.05942 6364 ft 249 kts 128°
2026-04-16 08:28 -8.40072 114.07449 6162 ft 241 kts 103°
2026-04-16 08:28 -8.40134 114.09118 5887 ft 238 kts 77°
2026-04-16 08:28 -8.39498 114.10621 5745 ft 230 kts 54°
2026-04-16 08:29 -8.38504 114.11875 5468 ft 231 kts 51°
2026-04-16 08:29 -8.37489 114.13149 5033 ft 233 kts 52°
2026-04-16 08:29 -8.36493 114.14402 4619 ft 232 kts 52°
2026-04-16 08:29 -8.35480 114.15678 4171 ft 233 kts 52°
2026-04-16 08:30 -8.34464 114.16955 3729 ft 233 kts 53°
2026-04-16 08:30 -8.33550 114.18288 3342 ft 228 kts 67°
2026-04-16 08:30 -8.33138 114.19805 2980 ft 221 kts 83°
2026-04-16 08:30 -8.32918 114.21337 2620 ft 221 kts 83°
2026-04-16 08:31 -8.32692 114.22848 2254 ft 212 kts 83°
2026-04-16 08:31 -8.32475 114.24283 1918 ft 201 kts 82°
2026-04-16 08:31 -8.32264 114.25656 1667 ft 191 kts 83°
2026-04-16 08:31 -8.32066 114.26952 1395 ft 188 kts 84°
2026-04-16 08:32 -8.31876 114.28217 1129 ft 177 kts 83°
2026-04-16 08:32 -8.31696 114.29421 884 ft 171 kts 83°
2026-04-16 08:32 -8.31523 114.30574 659 ft 160 kts 82°
2026-04-16 08:32 -8.31369 114.31647 427 ft 149 kts 84°
2026-04-16 08:33 -8.31226 114.32652 215 ft 142 kts 83°
2026-04-16 08:33 -8.31096 114.33621 149 ft 143 kts 85°
2026-04-16 08:33 -8.30955 114.34690 324 ft 158 kts 85°